Regional Weather Roundup
Issued by NWS

Home | Current Version | Previous Version | Text Only | Print | Product List | Glossary On
Versions: 1 2 3 4 5 6 7 8 9 10 11 12 13 14 15 16 17 18 19 20 21 22 23 24 25 26 27 28 29 30 31 32 33 34 35 36 37 38 39 40 41 42 43 44 45 46 47 48 49 50
341
ASUS43 KMKX 172020
RWRWI

WISCONSIN REGIONAL WEATHER ROUNDUP
NATIONAL WEATHER SERVICE MILWAUKEE/SULLIVAN WI
200 PM CST WED JAN 17 2018

NOTE: "FAIR" INDICATES FEW OR NO CLOUDS BELOW 12,000 FEET WITH NO
SIGNIFICANT WEATHER AND/OR OBSTRUCTIONS TO VISIBILITY.

WIZ001-002-006>008-014>016-023>028-172100-
NORTHWEST WISCONSIN

CITY           SKY/WX    TMP DP  RH WIND       PRES   REMARKS
SUPERIOR ARPT  FAIR      25   5  42 SW23      29.94F WCI  10
ASHLAND        FAIR      27   6  41 SW20G29   29.93F WCI  13
HAYWARD        FAIR      24   3  40 SW12G22   30.02F WCI  13
SIREN          FAIR      23   6  48 SW12      30.07F WCI  11
CUMBERLAND     FAIR      19   5  53 SW17G24   30.06F WCI   4
RICE LAKE      FAIR      23   6  48 CALM      30.10F
CHETEK         FAIR      24   6  45 SW10G16   30.09F WCI  13
LADYSMITH      FAIR      23   5  47 SW14      30.07F WCI  10
EAU CLAIRE     FLURRIES  24   7  48 SW14G23   30.13F WCI  12
MENOMONIE      FAIR      25   8  48 S15G23    30.14F WCI  13
NEW RICHMOND   FAIR      22   6  50 SW12G21   30.12F WCI  10
OSCEOLA        FAIR      26   7  44 SW10      30.14F WCI  17
$$

WIZ003>005-009-010-017-018-172100-
NORTH CENTRAL WISCONSIN

CITY           SKY/WX    TMP DP  RH WIND       PRES   REMARKS
MANITOWISH WTR FAIR      23   4  43 SW15G22   29.94F HAZE    WCI  10
ARBOR VITAE    FLURRIES  24   9  51 SW14G20   29.96F WCI  12
WOODRUFF       FLURRIES  24   9  51 SW14G20   29.96F WCI  12
RHINELANDER    FAIR      21   7  54 SW15G23   29.99F WCI   8
EAGLE RIVER    FAIR      22   7  54 SW15G21   29.93F WCI   8
LAND O LAKES   FAIR      26   7  45 SW10G20   29.93F WCI  16
PHILLIPS       FAIR      20   4  49 SW12G20   30.01F WCI   8
TOMAHAWK       FAIR      21   5  50 SW9       30.03F WCI  11
MEDFORD        FAIR      19   4  51 SW10G18   30.07F WCI   8
MERRILL        FAIR      20   5  52 SW14G21   30.07F WCI   7
$$

WIZ029-030-035-036-043>047-172100-
CENTRAL WISCONSIN

CITY           SKY/WX    TMP DP  RH WIND       PRES   REMARKS
WAUSAU         FAIR      20   3  48 SW15G22   30.09F WCI   6
MOSINEE        MOSUNNY   19   7  58 SW17G29   30.13F WCI   4
MARSHFIELD     FAIR      20   5  52 SW13      30.12F WCI   7
STEVENS POINT  FAIR      21   4  47 SW15G23   30.15F WCI   8
WAUPACA        FAIR      25   7  46 SW16      30.18F WCI  12
WAUTOMA        NOT AVBL
WISC RAPIDS    FAIR      22   3  44 W15G25    30.19F WCI   9
CAMP DOUGLAS   MOSUNNY   23   5  46 SW16G26   30.21F WCI  10
$$

WIZ011>013-019>022-031-037>040-048>050-172100-
NORTHEAST WISCONSIN

CITY           SKY/WX    TMP DP  RH WIND       PRES   REMARKS
ANTIGO         FAIR      19   4  51 W15G25    30.05F WCI   5
SHAWANO        FAIR      24   5  45 SW12G22   30.11F WCI  13
OCONTO         FAIR      22   5  48 SW15      30.10F WCI   9
STURGEON BAY   FAIR      21   8  57 SW17G24   30.09F WCI   7
GREEN BAY      FAIR      23   6  48 SW14G24   30.14F WCI  11
MANITOWOC      FAIR      21   8  57 SW16G26   30.18F WCI   7
APPLETON       PTSUNNY   21   3  45 SW18G26   30.15F WCI   6
CLINTONVILLE   FAIR      21   5  49 W13       30.14F WCI   9
OSHKOSH        FAIR      22   8  55 SW14G21   30.19F WCI   9
$$

WIZ032>034-041-042-053>061-172100-
SOUTHWEST WISCONSIN

CITY           SKY/WX    TMP DP  RH WIND       PRES   REMARKS
LA CROSSE      FAIR      24   8  50 S14G23    30.27F WCI  12
SPARTA         FAIR      26   5  42 SW9G21    30.25F WCI  16
VIROQUA        FAIR      21   8  56 SW17G23   30.25F WCI   7
BOSCOBEL       FAIR      24   6  46 SW13G21   30.34F WCI  12
PRAIRIE DU CHI FAIR      22   6  49 SW14      30.36F WCI   9
PLATTEVILLE    FAIR      21  10  62 SW17      30.35F WCI   7
$$

WIZ056-057-062-063-064-067-068-172100-
SOUTH CENTRAL WISCONSIN

CITY           SKY/WX    TMP DP  RH WIND       PRES   REMARKS
REEDSBURG      FAIR      21   7  53 SW12      30.27F WCI   9
BARABOO/DELLS  FAIR      21   5  50 W17G24    30.25F WCI   7
LONE ROCK      FAIR      22   8  55 SW15G24   30.32F WCI   9
MINERAL POINT  FAIR      23  12  63 SW16G22   30.31F WCI  10
MADISON        FAIR      20   8  60 SW14G25   30.29F WCI   7
MIDDLETON      FAIR      22   9  56 SW16G26   30.29F WCI   8
WATERTOWN      FAIR      21   9  59 SW15G23   30.29F WCI   8
MONROE         FAIR      19  10  68 SW17G24   30.33F WCI   4
JANESVILLE     SUNNY     18   9  68 SW15G21   30.36F WCI   3
$$

WIZ051-052-058>065-066-070>072-172100-
SOUTHEAST WISCONSIN

CITY           SKY/WX    TMP DP  RH WIND       PRES   REMARKS
MILWAUKEE      FAIR      22   9  57 SW16G30   30.31F WCI   8
WAUKESHA       SUNNY     19   7  58 W17G25    30.31F WCI   4
MILWAUKEE/TIMM SUNNY     23   5  46 W23G35    30.31F WCI   7
RACINE         FAIR      23   8  52 SW16G28   30.34F WCI  10
BURLINGTON     FAIR      19   7  59 SW16G23   30.34F WCI   5
KENOSHA        FAIR      20   9  62 W20G29    30.34F WCI   4
FOND DU LAC    FAIR      22   6  50 SW15G26   30.22F WCI   9
SHEBOYGAN      FAIR      20   8  60 SW17G24   30.22F WCI   5
WEST BEND      FAIR      21   9  58 SW13G24   30.24F WCI   9
JUNEAU         FAIR      20   8  60 SW18G24   30.27F WCI   5
$$

LSZ147-162-172100-
LAKE SUPERIOR

STATION/POSITION TIME  TEMP    WIND        PRES    WAVE
                       AIR SEA DIR/SP/G            HT/PER
                 (UTC) (F)     (DEG/KT/KT) (MB)    (FT/S)
DEVILS ISLAND    2000   25     230/ 31/ 35 1012.2F
SAXON HARBOR     1930   31     210/ 12/ 21 1013.2S
$$

LMZ867-665-643>646-172100-
LAKE MICHIGAN

STATION/POSITION TIME  TEMP    WIND        PRES    WAVE
                       AIR SEA DIR/SP/G            HT/PER
                 (UTC) (F)     (DEG/KT/KT) (MB)    (FT/S)
NORTHPORT PIER   2013   19     220/ 12/ 27 1017.3F
KEWAUNEE LAKESHO 2000   21     240/  9/ 15 1019.9
SHEBOYGAN LAKESH 2000   22     230/ 17/ 21 1024.5F
PORT WASHINGTON  1940   24     250/ 12/ 19 1026.1F
MILWAUKEE LAKESH 2000   24     250/ 17/ 21   N/A
KENOSHA   LAKESH 2000   21     240/ 17/ 23 1027.8
$$

TC  - TEMPERATURE IN CELSIUS
VSB - VISIBILITY IN STATUTE MILES
WCI - WIND CHILL INDEX
HX  - HEAT INDEX





USA.gov is the U.S. government's official web portal to all federal, state and local government web resources and services.